DW0307 Weather Reports


time (UTC)temp
F
wind
direction
speed
knots
gust
knots
rain 1hr
in
rain 24hr
in
rain mn
in
humidity
%
barometer
mb
20260905101549 61 215 3.5 18.2 0.00 0.00 0.00 74 1017.8
20260905100101 61 248 13.0 20.0 0.00 0.00 0.00 76 1018.7
20260905094551 60 267 15.6 20.9 0.00 0.00 0.00 74 1017.2
20260905093107 60 254 15.6 21.7 0.00 0.00 0.00 75 1017.3
20260905091601 61 257 15.6 24.3 0.00 0.00 0.00 75 1016.8
20260905090057 60 236 12.2 17.4 0.00 0.00 0.00 76 1016.9
20260905084603 61 261 20.0 32.2 0.00 0.00 0.00 72 1017.6
20260905083100 62 248 15.6 23.5 0.00 0.00 0.00 68 1016.7
20260905081559 65 251 18.2 31.3 0.00 0.00 0.00 62 1016.7
20260905080101 67 245 11.3 18.2 0.00 0.00 0.00 60 1016.9
20260905074609 69 227 8.7 15.6 0.00 0.00 0.00 60 1016.6
20260905073056 66 0 4.3 19.1 0.00 0.00 0.00 64 1016.2
20260905071552 66 199 5.2 11.3 0.00 0.00 0.00 70 1017.1
20260905070055 65 126 0.9 5.2 0.00 0.00 0.00 74 1016.8
20260905064609 64 360 3.5 7.0 0.00 0.00 0.00 76 1017.2
20260905063058 63 26 5.2 9.6 0.00 0.00 0.00 78 1016.8
20260905061553 62 302 4.3 12.2 0.00 0.00 0.00 78 1016.4
20260905060050 61 242 4.3 13.9 0.00 0.00 0.00 81 1016.4
20260905054600 59 209 0.9 3.5 0.00 0.00 0.00 84 1016.4
20260905053055 58 232 0.0 2.6 0.00 0.00 0.00 85 1016.2
20260905051553 57 0 0.9 4.3 0.00 0.00 0.00 85 1016.2
20260905050056 57 252 3.5 6.1 0.00 0.00 0.00 84 1015.8
20260905044550 58 273 0.0 3.5 0.00 0.00 0.00 82 1015.4
20260905043058 59 238 0.0 4.3 0.00 0.00 0.00 81 1015.3
20260905041558 60 64 0.0 5.2 0.00 0.00 0.00 81 1015.3
20260905040050 61 0 2.6 8.7 0.00 0.00 0.00 82 1015.1
20260905034604 61 229 5.2 9.6 0.00 0.00 0.00 82 1015.2
20260905033059 62 113 2.6 5.2 0.00 0.00 0.00 80 1014.7
20260905031612 63 118 0.0 2.6 0.00 0.00 0.00 79 1014.8
20260905030115 63 49 3.5 8.7 0.00 0.00 0.00 77 1014.6
20260905024606 65 124 5.2 11.3 0.00 0.00 0.00 70 1014.2
20260905023102 65 66 2.6 12.2 0.00 0.00 0.00 70 1013.9
20260905021606 65 46 2.6 11.3 0.00 0.00 0.00 70 1013.6
20260905020055 66 213 8.7 13.9 0.00 0.00 0.00 69 1013.2
20260905014557 65 213 9.6 15.6 0.00 0.00 0.00 70 1012.9
20260905013057 65 217 10.4 15.6 0.00 0.00 0.00 70 1013.0
20260905011555 64 215 11.3 16.5 0.00 0.00 0.00 72 1013.0
20260905010103 62 221 10.4 15.6 0.00 0.00 0.00 76 1013.2
20260905004551 59 234 5.2 7.8 0.00 0.00 0.00 79 1013.3
20260905003059 59 242 4.3 7.0 0.00 0.00 0.00 77 1013.3
20260905001603 61 244 5.2 7.8 0.00 0.00 0.00 75 1013.4
20260905000050 62 249 7.0 9.6 0.00 0.00 0.00 74 1013.4
20260904234553 63 238 8.7 12.2 0.00 0.00 0.00 74 1013.6
20260904233048 62 247 8.7 12.2 0.00 0.00 0.00 74 1013.9
20260904231556 63 248 7.8 12.2 0.00 0.00 0.00 72 1013.6
20260904230051 64 228 10.4 13.0 0.00 0.00 0.00 72 1013.8
20260904224601 64 250 10.4 15.6 0.00 0.00 0.00 72 1013.8
20260904223059 64 212 11.3 15.6 0.00 0.00 0.00 71 1013.7
20260904221555 64 224 9.6 13.0 0.00 0.00 0.00 71 1014.1
20260904220107 65 221 8.7 13.0 0.00 0.00 0.00 70 1014.4
20260904214549 66 229 10.4 14.8 0.00 0.00 0.00 69 1014.4
20260904213052 67 227 11.3 14.8 0.00 0.00 0.00 66 1014.3
20260904211555 68 244 10.4 17.4 0.00 0.00 0.00 65 1014.3
20260904210106 67 236 13.9 17.4 0.00 0.00 0.00 67 1014.4
20260904204553 67 248 12.2 19.1 0.00 0.00 0.00 67 1014.4
20260904203052 68 241 13.0 16.5 0.00 0.00 0.00 67 1014.6
20260904201552 67 250 9.6 15.6 0.00 0.00 0.00 67 1014.7
20260904200109 68 240 12.2 20.0 0.00 0.00 0.00 66 1014.9
20260904194633 68 243 15.6 21.7 0.00 0.00 0.00 66 1014.7
20260904193052 69 250 15.6 20.0 0.00 0.00 0.00 66 1014.7
20260904191552 69 251 14.8 20.9 0.00 0.00 0.00 65 1014.7
20260904190059 69 242 15.6 22.6 0.00 0.00 0.00 65 1014.9
20260904184604 68 252 13.9 22.6 0.00 0.00 0.00 66 1015.1
20260904183050 69 262 17.4 23.5 0.00 0.00 0.00 65 1014.9
20260904181600 69 254 16.5 24.3 0.00 0.00 0.00 64 1014.8
20260904180054 69 232 15.6 20.0 0.00 0.00 0.00 65 1014.8
20260904174550 69 239 13.0 19.1 0.00 0.00 0.00 65 1014.9
20260904173109 68 258 13.0 17.4 0.00 0.00 0.00 65 1014.7
20260904171551 69 240 12.2 18.2 0.00 0.00 0.00 64 1014.8
20260904170054 70 225 14.8 22.6 0.00 0.00 0.00 63 1014.8
20260904164602 70 244 17.4 25.2 0.00 0.00 0.00 62 1014.8
20260904163057 70 227 18.2 26.9 0.00 0.00 0.00 62 1014.8
20260904161554 70 248 13.9 26.9 0.00 0.00 0.00 61 1014.9
20260904160103 71 240 16.5 23.5 0.00 0.00 0.00 60 1015.1
20260904154617 71 247 13.0 21.7 0.00 0.00 0.00 60 1015.4
20260904153057 72 259 15.6 26.1 0.00 0.00 0.00 58 1015.6
20260904151601 72 249 17.4 24.3 0.00 0.00 0.00 58 1015.6
20260904150050 72 252 15.6 22.6 0.00 0.00 0.00 59 1015.6
20260904144600 72 262 16.5 22.6 0.00 0.00 0.00 59 1015.9
20260904143056 71 242 17.4 25.2 0.00 0.00 0.00 58 1016.1
20260904141617 72 236 18.2 26.9 0.00 0.00 0.00 58 1016.1
20260904140104 72 252 19.1 26.1 0.00 0.00 0.00 58 1015.8
20260904134619 71 254 19.1 26.9 0.00 0.00 0.00 59 1015.9
20260904133109 73 248 23.5 31.3 0.00 0.00 0.00 55 1016.3
20260904131607 74 244 20.0 28.7 0.00 0.00 0.00 53 1016.4
20260904130050 74 244 20.0 28.7 0.00 0.00 0.00 55 1016.7
20260904124548 74 261 20.0 28.7 0.00 0.00 0.00 54 1016.7
20260904123053 73 244 19.1 26.9 0.00 0.00 0.00 55 1016.6
20260904121549 72 259 20.0 28.7 0.00 0.00 0.00 54 1016.8
20260904120059 73 259 22.6 29.5 0.00 0.00 0.00 54 1017.2
20260904114552 71 258 21.7 27.8 0.00 0.00 0.00 56 1017.3
20260904113050 71 254 20.9 26.1 0.00 0.00 0.00 55 1017.3
20260904111601 72 234 20.0 26.1 0.00 0.00 0.00 57 1017.7
20260904110057 71 244 16.5 28.7 0.00 0.00 0.00 58 1017.8
20260904104552 70 256 20.0 28.7 0.00 0.00 0.00 59 1018.2
20260904103053 71 246 18.2 26.9 0.00 0.00 0.00 59 1017.9